Starlink 32925

operational
NORAD ID: 63091 Int'l Des: 2025-037 Owner: SPXS Country: US Constellation: starlink
LEOCIRCULAR

About Starlink 32925

Description loading...

Live Position

Loading 3D Globe...

Upcoming Passes

Altitude History

Altitude vs Time

uPlot chart will show altitude changes over time

Two-Line Element Set

1 63091U 25037Q 25352.82659333 .00002376 00000-0 20679-3 0 9997
2 63091 69.9992 198.1703 0002383 269.9076 90.1810 14.98336277 46435
Epoch: Dec 18, 2025 • Age: 13 hours

Current Status

Altitude 583.0 km
Velocity 7.57 km/s
Sub-Earth Point 59.19°N, 113.73°E
Launch Date Feb 23, 2025
Age 0.8 years
Type internet

Technical Details

Classification Payload
Mass 730.00 kg
Dry Mass 700.00 kg
Total Mass 730.00 kg
Length 0.30 m
Diameter 4.10 m
Span 29.00 m
Shape Box + pan
Manufacturer SPXS
Bus Type Starlink V2M
Phase Status In Orbit
Owner/State SPXS/US

Large Constellations

Loading constellations...